[[{"header":{"parameterUnit":"m.s-1","parameterCategory":1,"la1":30.2991,"la2":30.254,"lo1":-89.0895,"lo2":-89.0444,"dy":0.0017,"dx":0.0017,"nx":28,"ny":28,"refTime":"2025-06-08T21:00:00:Z","depth":0,"parameterNumber":2,"parameterNumberName":"U-component_of_WINDS"},"data":[0,0,0,0,0,0,0,0,0,0,0,0,0,0,0,0,0,0,0,0,0,0,0,0,0,0,0,0,0,0,0,0,0,0,0,0,0,0,0,0,0,0,0,0,0,0,0,0,0,0,0,0,0,0,0,0,0,0,1.9928,1.9928,0,1.9974,1.9974,1.9975,1.9943,1.9942,1.994,1.9939,1.9991,1.9993,1.9996,0,0,0,0,0,0,0,0,0,0,0,0,0,1.9818,1.982,1.9927,1.9928,1.9929,1.9974,1.9974,1.9975,1.9944,1.9942,1.994,1.9938,1.999,1.9993,1.9996,0,0,0,0,0,0,0,0,0,0,0,0,0,1.9865,1.9821,1.9927,1.9918,1.9918,1.9974,1.9974,1.9975,1.9944,1.9942,1.994,1.9938,1.9989,1.9993,1.9997,2.0065,0,0,2.0009,2.0011,0,0,0,0,0,0,0,0,1.9862,1.9869,1.9919,1.9919,1.9919,1.995,1.9954,2.0005,1.9944,1.9934,1.9939,1.9936,1.9979,1.9984,1.9998,2.0067,2.007,2.0009,2.0012,2.0014,2.0015,0,0,0,0,0,0,0,1.9859,1.9867,1.9946,1.992,1.992,1.9914,1.9918,1.9964,1.9968,1.9935,1.9933,1.9938,1.9979,1.9994,1.9999,2.007,2.0009,2.0013,2.0016,2.0017,2.0203,2.0205,0,0,0,0,0,0,1.9856,1.9864,1.9944,1.9947,1.9885,1.9918,1.9922,1.9943,1.9968,1.9969,1.994,1.9937,1.9988,1.9994,2.0,2.0085,2.0014,2.0018,2.002,2.0201,2.0204,2.0206,0,0,0,0,0,0,1.9854,1.9863,1.9943,1.9905,1.9915,1.9922,1.9945,1.9945,1.9959,1.9972,1.9973,1.9954,1.9986,1.9995,2.005,2.0086,2.0019,2.0023,2.0198,2.0201,2.0205,2.0252,0,0,0,0,0,0,1.9851,1.9863,1.9887,1.9906,1.9917,1.999,1.9947,1.9947,1.9966,1.9962,1.9985,1.9987,1.9985,2.0044,2.0054,2.009,2.0026,2.0194,2.0199,2.0204,2.0248,2.0257,2.0266,0,0,0,0,0,1.9847,1.9899,1.9889,1.9898,1.9947,1.9992,1.9998,1.9994,1.9969,1.9995,2.0003,1.9986,2.008,2.005,2.0061,2.0099,2.0192,2.0198,2.0203,2.0244,2.0255,2.0265,0,0,0,0,0,0,1.9885,1.9901,1.989,1.9949,1.9969,1.9986,2.0018,2.0006,2.0034,2.003,2.0024,2.003,2.0088,2.0099,2.0065,2.0169,2.0133,2.0141,2.0159,2.0171,2.0179,2.0177,2.003,0,0,0,0,0,1.99,1.9933,1.9946,1.9997,2.0007,2.0011,2.003,2.0026,2.0047,2.0055,2.0068,2.009,2.0125,2.0148,2.0181,2.0249,2.0255,2.0281,2.029,2.0297,2.0305,2.0345,2.0358,2.0225,2.0225,2.0225,0,0,1.9932,1.9945,1.9966,2.0005,2.002,2.0056,2.0019,2.0058,2.0086,2.0062,2.0115,2.0125,2.015,2.0213,2.0242,2.0224,2.0343,2.0304,2.031,2.0314,2.0352,2.0365,2.0376,2.0229,2.0228,2.0227,0,0,2.0009,2.002,2.0066,2.0082,2.0105,2.0108,2.0119,2.0138,2.0144,2.0197,2.0181,2.0215,2.0274,2.0294,2.0311,2.0399,2.0386,2.041,2.0457,2.0496,2.0507,2.0516,2.055,2.0562,2.0417,2.0417,2.0417,0,2.0046,2.0098,2.0091,2.0132,2.0152,2.0131,2.0179,2.0195,2.0228,2.0243,2.0222,2.0298,2.0313,2.0382,2.0404,2.0418,2.0433,2.0407,2.0506,2.0515,2.0524,2.0556,2.0569,2.042,2.042,2.0419,2.0419,0,2.0144,2.0181,2.0215,2.0248,2.027,2.0315,2.0317,2.0341,2.0335,2.0341,2.0397,2.0415,2.0452,2.0468,2.0462,2.0537,2.0526,2.0506,2.047,2.0539,2.057,2.0582,2.0424,2.0423,2.0422,2.0422,0,0,2.0245,2.0275,2.0288,2.0303,2.0329,2.0358,2.0403,2.0439,2.0461,2.0485,2.0525,2.0577,2.0559,2.0579,2.0576,2.061,2.0682,2.0586,2.0587,2.0606,2.077,2.0787,2.0801,2.0673,2.0675,2.0677,2.0769,0,2.0326,2.0402,2.0399,2.0472,2.0508,2.049,2.053,2.0551,2.0558,2.0591,2.06,2.0638,2.061,2.0622,2.0655,2.0666,2.0716,2.0659,2.0713,2.0715,2.0709,2.0817,2.0834,2.0919,2.0781,2.0783,2.0784,0,2.0429,2.0457,2.0534,2.0556,2.0571,2.0607,2.0641,2.0672,2.0697,2.07,2.0724,2.0716,2.0764,2.0726,2.0795,2.0757,2.0779,2.0788,2.0791,2.0797,2.0755,2.0828,2.0946,2.096,2.0802,2.0801,2.0799,0,2.0499,2.0556,2.061,2.0623,2.065,2.0676,2.0689,2.0712,2.0734,2.0765,2.078,2.0816,2.0836,2.0866,2.0869,2.084,2.0939,2.09,2.0946,2.0946,2.0969,2.0968,2.1094,2.0979,2.0979,2.0979,2.0978,0,2.059,2.0639,2.0642,2.0675,2.073,2.0726,2.0781,2.0791,2.0812,2.085,2.0836,2.0872,2.0872,2.091,2.0912,2.0971,2.0979,2.0985,2.0986,2.0988,2.0988,2.1003,2.0998,2.0982,2.0981,2.0981,2.098,0,2.0678,2.0681,2.0739,2.0761,2.0767,2.0807,2.0826,2.086,2.0866,2.0914,2.0925,2.0936,2.0979,2.0984,2.1035,2.1037,2.1108,2.1101,2.11,2.11,2.1146,2.1142,2.1288,2.1309,2.1178,2.118,2.1181,0,2.0736,2.0773,2.0799,2.0823,2.0837,2.0874,2.0898,2.0897,2.0922,2.0955,2.0985,2.1027,2.1061,2.1131,2.1145,2.1185,2.1181,2.1229,2.1187,2.1188,2.1185,2.1184,2.1189,2.1238,2.1239,2.1241,2.1241,0,2.0842,2.0842,2.0876,2.0911,2.0939,2.0967,2.0993,2.1014,2.1016,2.1046,2.109,2.1116,2.1168,2.1212,2.1251,2.1267,2.1256,2.1255,2.1268,2.1271,2.127,2.1274,2.1125,2.1252,2.1251,2.125,2.1249,2.1249,2.0918,2.0952,2.0976,2.1014,2.1034,2.106,2.1093,2.1104,2.114,2.1182,2.1179,2.1229,2.1256,2.1308,2.1327,2.1367,2.1352,2.137,2.1375,2.138,2.1386,2.1262,2.1374,2.1374,2.1374,2.1373,2.1373,0,2.1025,2.104,2.1076,2.1113,2.1145,2.113,2.1159,2.1187,2.123,2.1256,2.129,2.1342,2.1385,2.1402,2.1445,2.1474,2.147,2.1485,2.1484,2.1489,2.1396,2.1382,2.1488,2.1488,2.1488,2.1488,2.1488,2.1488,2.1085,2.1141,2.1145,2.1212,2.1227,2.1275,2.1293,2.1318,2.1339,2.1397,2.1432,2.1443,2.1467,2.1511,2.1551,2.1555,2.1573,2.1591,2.1593,2.1506,2.1495,2.1484,2.1471,2.1594,2.1594,2.1683,2.1684,2.1685]},{"header":{"parameterUnit":"m.s-1","parameterCategory":1,"la1":30.2991,"la2":30.254,"lo1":-89.0895,"lo2":-89.0444,"dy":0.0017,"dx":0.0017,"nx":28,"ny":28,"refTime":"2025-06-08T21:00:00:Z","depth":0,"parameterNumber":3,"parameterNumberName":"V-component_of_WINDS"},"data":[0,0,0,0,0,0,0,0,0,0,0,0,0,0,0,0,0,0,0,0,0,0,0,0,0,0,0,0,0,0,0,0,0,0,0,0,0,0,0,0,0,0,0,0,0,0,0,0,0,0,0,0,0,0,0,0,0,0,-0.2911,-0.2909,0,-0.2802,-0.2801,-0.28,-0.2733,-0.2733,-0.2732,-0.2732,-0.2621,-0.2619,-0.2616,0,0,0,0,0,0,0,0,0,0,0,0,0,-0.3061,-0.3059,-0.2911,-0.2909,-0.2908,-0.2802,-0.2801,-0.2799,-0.2733,-0.2733,-0.2732,-0.2732,-0.2622,-0.2619,-0.2616,0,0,0,0,0,0,0,0,0,0,0,0,0,-0.2979,-0.3058,-0.2911,-0.2862,-0.2857,-0.2803,-0.2801,-0.2799,-0.2733,-0.2733,-0.2732,-0.2732,-0.2623,-0.2619,-0.2615,-0.2601,0,0,-0.2603,-0.2602,0,0,0,0,0,0,0,0,-0.2983,-0.2973,-0.2871,-0.2865,-0.2859,-0.2781,-0.2813,-0.2733,-0.2733,-0.278,-0.2732,-0.2731,-0.2675,-0.2666,-0.2647,-0.2596,-0.2591,-0.2603,-0.26,-0.2599,-0.2598,0,0,0,0,0,0,0,-0.2989,-0.2978,-0.2868,-0.2869,-0.2862,-0.2846,-0.2834,-0.2798,-0.2732,-0.2776,-0.2771,-0.2759,-0.2671,-0.2651,-0.2644,-0.259,-0.2603,-0.2599,-0.2597,-0.2595,-0.2523,-0.2524,0,0,0,0,0,0,-0.3003,-0.2983,-0.2871,-0.2864,-0.2921,-0.2844,-0.283,-0.2806,-0.2732,-0.272,-0.2759,-0.2756,-0.2658,-0.2649,-0.264,-0.2619,-0.2599,-0.2595,-0.2593,-0.2523,-0.2523,-0.2524,0,0,0,0,0,0,-0.3006,-0.2993,-0.2876,-0.2922,-0.2906,-0.2842,-0.2816,-0.2805,-0.2784,-0.2719,-0.2707,-0.2751,-0.2657,-0.2645,-0.2612,-0.2615,-0.2593,-0.259,-0.2522,-0.2523,-0.2524,-0.2578,0,0,0,0,0,0,-0.3011,-0.2995,-0.2989,-0.2923,-0.2904,-0.2849,-0.2816,-0.2803,-0.2778,-0.2772,-0.2708,-0.2697,-0.2656,-0.2618,-0.2608,-0.2609,-0.2587,-0.2522,-0.2523,-0.2523,-0.2576,-0.258,-0.2585,0,0,0,0,0,-0.3016,-0.3008,-0.2989,-0.2976,-0.2895,-0.2849,-0.2838,-0.2791,-0.2778,-0.2771,-0.273,-0.2699,-0.2616,-0.2615,-0.2603,-0.2603,-0.2521,-0.2522,-0.2523,-0.2574,-0.258,-0.2584,0,0,0,0,0,0,-0.3076,-0.2998,-0.2976,-0.2946,-0.2905,-0.2838,-0.2828,-0.2799,-0.2761,-0.2757,-0.2701,-0.2687,-0.2659,-0.2627,-0.2628,-0.2586,-0.2565,-0.2564,-0.2608,-0.2613,-0.2617,-0.2625,-0.2583,0,0,0,0,0,-0.3086,-0.3055,-0.2989,-0.2969,-0.295,-0.2893,-0.2871,-0.2839,-0.2794,-0.2776,-0.2732,-0.2689,-0.2654,-0.2631,-0.2595,-0.2571,-0.2556,-0.2565,-0.257,-0.2574,-0.2573,-0.2559,-0.2562,-0.2527,-0.2527,-0.2527,0,0,-0.3105,-0.3059,-0.3043,-0.298,-0.2944,-0.2914,-0.2878,-0.2848,-0.2825,-0.2771,-0.2737,-0.2703,-0.2652,-0.2624,-0.2609,-0.2597,-0.258,-0.2575,-0.2579,-0.2576,-0.256,-0.2564,-0.2567,-0.2528,-0.2528,-0.2527,0,0,-0.3126,-0.3088,-0.3067,-0.3032,-0.2979,-0.2941,-0.2937,-0.2874,-0.285,-0.2815,-0.2774,-0.2746,-0.2686,-0.2651,-0.2626,-0.2636,-0.2606,-0.2625,-0.2649,-0.2636,-0.2638,-0.264,-0.2644,-0.2646,-0.2625,-0.2625,-0.2625,0,-0.3157,-0.311,-0.306,-0.3033,-0.3007,-0.2957,-0.2936,-0.2904,-0.2842,-0.2825,-0.2812,-0.2736,-0.2698,-0.2662,-0.2664,-0.2645,-0.2638,-0.2632,-0.2642,-0.2644,-0.2645,-0.2648,-0.265,-0.2628,-0.2628,-0.2627,-0.2627,0,-0.3151,-0.312,-0.311,-0.3051,-0.3023,-0.3,-0.2947,-0.2925,-0.2896,-0.286,-0.2825,-0.2778,-0.2732,-0.2721,-0.2691,-0.268,-0.2674,-0.2653,-0.263,-0.2652,-0.2654,-0.2655,-0.2632,-0.2631,-0.263,-0.2629,0,0,-0.3205,-0.312,-0.3117,-0.3091,-0.3029,-0.3003,-0.2978,-0.2933,-0.2916,-0.2874,-0.2852,-0.2803,-0.2783,-0.2754,-0.272,-0.2709,-0.2721,-0.2689,-0.2687,-0.2697,-0.2706,-0.2723,-0.2725,-0.2701,-0.2701,-0.2701,-0.2711,0,-0.3216,-0.3168,-0.3123,-0.3091,-0.3061,-0.3014,-0.2992,-0.2952,-0.2918,-0.2888,-0.2851,-0.2817,-0.2793,-0.2776,-0.2762,-0.2722,-0.2722,-0.2721,-0.2679,-0.2679,-0.2694,-0.2726,-0.2743,-0.2755,-0.2711,-0.2711,-0.2711,0,-0.3223,-0.3185,-0.3149,-0.3091,-0.3077,-0.3058,-0.3014,-0.2986,-0.294,-0.2916,-0.2885,-0.285,-0.2822,-0.2803,-0.2763,-0.2764,-0.2744,-0.2722,-0.2722,-0.2716,-0.2696,-0.2721,-0.2757,-0.2759,-0.2712,-0.2712,-0.2712,0,-0.3267,-0.3206,-0.3177,-0.3156,-0.3087,-0.3075,-0.3046,-0.2999,-0.2976,-0.2937,-0.2921,-0.288,-0.2858,-0.2827,-0.2782,-0.2772,-0.2747,-0.2725,-0.2727,-0.2728,-0.2723,-0.2724,-0.2757,-0.2711,-0.2711,-0.2711,-0.2711,0,-0.3284,-0.3264,-0.3196,-0.3178,-0.3155,-0.3105,-0.3084,-0.305,-0.301,-0.2985,-0.2942,-0.292,-0.2862,-0.2834,-0.2798,-0.2771,-0.2761,-0.2742,-0.2732,-0.2745,-0.2748,-0.2732,-0.273,-0.2712,-0.2712,-0.2711,-0.2711,0,-0.3328,-0.3282,-0.3247,-0.3186,-0.317,-0.3156,-0.3103,-0.3085,-0.3049,-0.3019,-0.3009,-0.2953,-0.2917,-0.2869,-0.2818,-0.2795,-0.2772,-0.2758,-0.2788,-0.2782,-0.2788,-0.2788,-0.2811,-0.2811,-0.2766,-0.2766,-0.2767,0,-0.3343,-0.3326,-0.3264,-0.3244,-0.3217,-0.3186,-0.3162,-0.3112,-0.3088,-0.3036,-0.3024,-0.2985,-0.2951,-0.2896,-0.2851,-0.2812,-0.2796,-0.2807,-0.279,-0.2804,-0.2797,-0.2798,-0.2797,-0.2811,-0.2812,-0.2813,-0.2813,0,-0.3373,-0.3351,-0.3318,-0.3277,-0.3249,-0.3215,-0.3178,-0.3165,-0.3107,-0.3083,-0.3046,-0.302,-0.2969,-0.2931,-0.2886,-0.2856,-0.2826,-0.2819,-0.2818,-0.2831,-0.2849,-0.2839,-0.2799,-0.2819,-0.2818,-0.2818,-0.2817,-0.2817,-0.3402,-0.3386,-0.334,-0.3305,-0.3272,-0.3239,-0.3219,-0.3182,-0.315,-0.3104,-0.3077,-0.3041,-0.2997,-0.2934,-0.2906,-0.2878,-0.2865,-0.2863,-0.2862,-0.2863,-0.2867,-0.2854,-0.2869,-0.2869,-0.2869,-0.2869,-0.2868,0,-0.3431,-0.3399,-0.3367,-0.3318,-0.329,-0.3264,-0.3223,-0.3201,-0.3171,-0.3132,-0.31,-0.3058,-0.3021,-0.2974,-0.2934,-0.2921,-0.2905,-0.2912,-0.2912,-0.2906,-0.288,-0.2886,-0.2925,-0.2925,-0.2925,-0.2925,-0.2925,-0.2925,-0.3442,-0.3414,-0.3387,-0.3343,-0.3311,-0.3276,-0.3254,-0.3224,-0.3193,-0.3148,-0.3118,-0.3087,-0.3045,-0.3002,-0.2968,-0.2955,-0.2942,-0.2953,-0.2936,-0.2913,-0.2908,-0.2903,-0.2908,-0.2951,-0.2951,-0.2964,-0.2964,-0.2964]}]]